Erie, PA

2:40 AM EST on December 04, 2016 (GMT -0500)
Erie International

Weather History for KERI - August, 2014

Change the Weather History Date:

Friday, August 1, 2014

  Actual Average Record
Temperature  
Mean Temperature 73 °F 72 °F  
Max Temperature 81 °F 80 °F 95 °F (1917)
Min Temperature 65 °F 64 °F 50 °F (1960)
Degree Days  
Heating Degree Days 0 0  
Month to date heating degree days 0 0  
Since 1 June heating degree days 35 68  
Since 1 July heating degree days 5 7  
Cooling Degree Days 8 7  
Month to date cooling degree days 8 7  
Year to date cooling degree days 357 382  
Since 1 June cooling degree days 318 343  
Growing Degree Days 22 (Base 50)    
Moisture  
Dew Point 58 °F    
Average Humidity 62    
Maximum Humidity 73    
Minimum Humidity 51    
Precipitation  
Precipitation 0.09 in 0.12 in 0.59 in (1983)
Month to date precipitation 0.09 0.12  
Year to date precipitation 24.48 22.48  
Snow  
Snow 0.00 in 0.00 in - ()
Month to date snowfall 0.0 0.0  
Since 1 June snowfall 0.0 0.0  
Since 1 July snowfall 0.0 0.0  
Snow Depth 0.00 in    
Sea Level Pressure  
Sea Level Pressure 30.10 in    
Wind  
Wind Speed 6 mph (WSW)    
Max Wind Speed 20 mph    
Max Gust Speed 28 mph    
Visibility 10 miles    
Events      
T = Trace of Precipitation, MM = Missing Value Source: NWS Daily Summary

Daily Weather History Graph

Daily Weather History Graph

Search for Another Location

Airport or City:

Trip Planner

Search our weather history database for the weather conditions in past years. The results will help you decide how hot, cold, wet, or windy it might be!

Date:

Astronomy

Aug. 01, 2014 Rise Set
Actual Time 6:13 AM EDT 8:39 PM EDT
Civil Twilight 5:42 AM EDT 9:10 PM EDT
Nautical Twilight 5:03 AM EDT 9:50 PM EDT
Astronomical Twilight 4:19 AM EDT 10:33 PM EDT
Moon 11:42 AM EDT (8/1) 11:16 PM EDT (8/1)
Length of Visible Light 15h 28m
Length of Day
14h 25m
Waxing Crescent, 27% of the Moon is Illuminated
Aug 1
Waxing Crescent
Aug 3
First Quarter
Aug 10
Full
Aug 17
Last Quarter
Aug 25
New

Hourly Weather History & Observations

Time (EDT) Temp. Heat Index Dew Point Humidity Pressure Visibility Wind Dir Wind Speed Gust Speed Precip Events Conditions
12:51 AM 64.9 °F - 52.0 °F 63% 30.08 in 10.0 mi South 11.5 mph - N/A   Clear
1:51 AM 64.9 °F - 53.1 °F 65% 30.07 in 10.0 mi South 11.5 mph - N/A   Clear
2:51 AM 64.9 °F - 54.0 °F 68% 30.07 in 10.0 mi South 9.2 mph - N/A   Clear
3:51 AM 64.9 °F - 54.0 °F 68% 30.07 in 10.0 mi South 10.4 mph - N/A   Clear
4:51 AM 66.0 °F - 55.0 °F 68% 30.08 in 10.0 mi SSW 4.6 mph - N/A   Scattered Clouds
5:51 AM 64.9 °F - 55.9 °F 73% 30.09 in 10.0 mi SSW 4.6 mph - N/A   Clear
6:51 AM 66.0 °F - 55.9 °F 70% 30.10 in 10.0 mi South 4.6 mph - N/A   Scattered Clouds
7:51 AM 66.2 °F - 57.2 °F 73% 30.13 in 10.0 mi South 6.9 mph - N/A   Clear
8:51 AM 71.1 °F - 59.0 °F 66% 30.13 in 10.0 mi South 8.1 mph - N/A   Clear
9:51 AM 75.0 °F - 59.0 °F 57% 30.12 in 10.0 mi SW 4.6 mph - N/A   Clear
10:51 AM 78.8 °F - 60.8 °F 54% 30.13 in 10.0 mi West 3.5 mph - N/A   Clear
11:51 AM 78.1 °F - 60.1 °F 54% 30.13 in 10.0 mi WNW 5.8 mph - N/A   Clear
12:51 PM 78.1 °F - 62.1 °F 58% 30.13 in 10.0 mi NW 6.9 mph - N/A   Scattered Clouds
1:51 PM 79.0 °F - 62.1 °F 56% 30.12 in 10.0 mi NNW 6.9 mph - N/A   Clear
2:51 PM 81.0 °F 81.6 °F 60.1 °F 49% 30.12 in 10.0 mi WNW 6.9 mph - N/A   Clear
3:51 PM 79.0 °F - 59.0 °F 50% 30.11 in 10.0 mi NW 5.8 mph - N/A   Mostly Cloudy
4:51 PM 80.6 °F 81.5 °F 60.8 °F 51% 30.10 in 10.0 mi NW 4.6 mph - N/A   Partly Cloudy
5:51 PM 79.0 °F - 59.0 °F 50% 30.09 in 10.0 mi North 4.6 mph - N/A   Clear
6:51 PM 77.0 °F - 60.1 °F 56% 30.09 in 10.0 mi North 5.8 mph - N/A   Clear
7:51 PM 75.0 °F - 60.1 °F 60% 30.10 in 10.0 mi ENE 4.6 mph - N/A   Clear
8:51 PM 73.0 °F - 59.0 °F 61% 30.10 in 10.0 mi ENE 3.5 mph - N/A   Clear
9:51 PM 73.0 °F - 59.0 °F 61% 30.11 in 10.0 mi Calm Calm - N/A   Partly Cloudy
10:51 PM 72.0 °F - 60.1 °F 66% 30.10 in 10.0 mi Calm Calm - N/A   Clear
11:51 PM 69.8 °F - 60.8 °F 73% 30.11 in 9.0 mi Calm Calm - N/A   Scattered Clouds